Weather History for Dalhart, TX

Change the Weather History Date:

Wednesday, February 13, 2013

  Actual Average Record
Temperature  
Mean Temperature 30 °F 37 °F  
Max Temperature 44 °F 52 °F 79 °F (1954)
Min Temperature 15 °F 22 °F 2 °F (1978)
Degree Days  
Heating Degree Days 35 28  
Month to date heating degree days 329 372  
Since 1 July heating degree days 2895 3254  
Cooling Degree Days 0 0  
Month to date cooling degree days 0 0  
Year to date cooling degree days 0 0  
Moisture  
Dew Point 19 °F    
Average Humidity 73    
Maximum Humidity 92    
Minimum Humidity 53    
Precipitation  
Precipitation 0.00 in 0.01 in 0.47 in (1969)
Month to date precipitation 0.26 0.19  
Year to date precipitation 0.43 0.71  
Snow  
Snow 0.00 in 0.10 in 1.20 in (1997)
Month to date snowfall 8.0 1.7  
Since 1 July snowfall 12.5 12.2  
Snow Depth 5.00 in    
Sea Level Pressure  
Sea Level Pressure 30.06 in    
Wind  
Wind Speed 7 mph (WSW)    
Max Wind Speed 14 mph    
Max Gust Speed 15 mph    
Visibility 10 miles    
Events      
T = Trace of Precipitation, MM = Missing Value Source: NWS Daily Summary

Daily Weather History Graph

Daily Weather History Graph

Search for Another Location

Airport:

Trip Planner

Search our weather history database for the weather conditions in past years. The results will help you decide how hot, cold, wet, or windy it might be!

Date:

Astronomy

Feb. 13, 2013 Rise Set
Actual Time 7:39 AM CST 6:29 PM CST
Civil Twilight 7:13 AM CST 6:56 PM CST
Nautical Twilight 6:42 AM CST 7:26 PM CST
Astronomical Twilight 6:13 AM CST 7:56 PM CST
Moon 9:18 AM CST (2/13) 10:25 PM CST (2/13)
Length of Visible Light 11h 43m
Length of Day
10h 50m
Waxing Crescent, 14% of the Moon is Illuminated
Feb 13
Waxing Crescent
Feb 17
First Quarter
Feb 25
Full
Mar 4
Last Quarter
Mar 11
New

Hourly Weather History & Observations

Time (CST) Temp. Windchill Dew Point Humidity Pressure Visibility Wind Dir Wind Speed Gust Speed Precip Events Conditions
12:53 AM 18.0 °F 6.1 °F 12.9 °F 81% 30.12 in 10.0 mi West 10.4 mph - N/A   Clear
1:53 AM 19.0 °F 7.5 °F 12.0 °F 74% 30.11 in 10.0 mi WNW 10.4 mph - N/A   Clear
2:53 AM 19.0 °F 7.5 °F 10.9 °F 71% 30.12 in 10.0 mi WNW 10.4 mph - N/A   Clear
3:53 AM 21.9 °F 9.8 °F 12.0 °F 66% 30.09 in 10.0 mi WNW 12.7 mph - N/A   Clear
4:53 AM 21.9 °F 10.4 °F 10.9 °F 63% 30.07 in 10.0 mi WNW 11.5 mph - N/A   Clear
5:53 AM 19.0 °F 9.0 °F 10.0 °F 68% 30.10 in 10.0 mi WNW 8.1 mph - N/A   Clear
6:53 AM 21.0 °F 13.4 °F 10.9 °F 65% 30.11 in 10.0 mi WNW 5.8 mph - N/A   Clear
7:53 AM 16.0 °F 8.8 °F 8.1 °F 71% 30.14 in 10.0 mi WNW 4.6 mph - N/A   Clear
8:53 AM 18.0 °F 9.8 °F 12.0 °F 78% 30.14 in 10.0 mi West 5.8 mph - N/A   Clear
9:53 AM 23.0 °F 17.0 °F 14.0 °F 68% 30.12 in 10.0 mi West 4.6 mph - N/A   Clear
10:53 AM 30.0 °F - 17.1 °F 59% 30.11 in 10.0 mi Calm Calm - N/A   Clear
11:53 AM 33.1 °F - 23.0 °F 66% 30.09 in 10.0 mi Calm Calm - N/A   Clear
12:53 PM 34.0 °F 29.8 °F 23.0 °F 64% 30.07 in 10.0 mi South 4.6 mph - N/A   Clear
1:53 PM 37.0 °F 32.4 °F 23.0 °F 57% 30.02 in 10.0 mi SSW 5.8 mph - N/A   Clear
2:53 PM 39.9 °F 35.1 °F 25.0 °F 55% 29.99 in 10.0 mi South 6.9 mph - N/A   Clear
3:53 PM 43.0 °F 41.3 °F 26.1 °F 51% 29.97 in 10.0 mi South 3.5 mph - N/A   Clear
4:53 PM 44.1 °F 41.5 °F 28.0 °F 53% 29.97 in 10.0 mi SE 4.6 mph - N/A   Clear
5:53 PM 39.9 °F 34.5 °F 30.0 °F 68% 29.98 in 10.0 mi SE 8.1 mph - N/A   Clear
6:53 PM 36.0 °F 30.3 °F 26.1 °F 67% 30.00 in 10.0 mi South 6.9 mph - N/A   Clear
7:53 PM 30.0 °F 23.2 °F 23.0 °F 75% 30.04 in 10.0 mi South 6.9 mph - N/A   Clear
8:53 PM 28.9 °F 21.9 °F 23.0 °F 78% 30.05 in 10.0 mi SSW 6.9 mph - N/A   Clear
9:53 PM 30.9 °F 26.2 °F 21.9 °F 69% 30.04 in 10.0 mi SW 4.6 mph - N/A   Clear
10:53 PM 30.9 °F 26.2 °F 23.0 °F 72% 30.03 in 10.0 mi West 4.6 mph - N/A   Clear
11:53 PM 30.0 °F 22.4 °F 23.0 °F 75% 30.04 in 10.0 mi WNW 8.1 mph - N/A   Clear